Contract 0x2CAa4694cB7Daf7d49A198dC1103C06d4991ae52 1

 

Contract Overview

Balance:
0 BNB

BNB Value:
$0.00

Token:
Txn Hash
Block
From
To
Value [Txn Fee]
0xcf92821c49fe5be68a4b070882de9da2a9a2291a4c719b1d6a4cf130c8c47ce897258992021-08-03 23:22:561 hr 7 mins ago0xe201936976c279a484731e2078b9293707a9b22f IN  0x2caa4694cb7daf7d49a198dc1103c06d4991ae520 BNB0.001168345
0x01050761488f30fecbc58b5b7c7b67372030681cf142b1716b30efe2d81cf03897249222021-08-03 22:33:251 hr 56 mins ago0xc11c5a23e5b13f3e53e2b63bfd25d17a6b424389 IN  0x2caa4694cb7daf7d49a198dc1103c06d4991ae520 BNB0.00123344
0x49e1cfbafdfa9cb0b75675c1e05225d0e1101e17111f5a78e7e4e90820c35f1c97249052021-08-03 22:32:341 hr 57 mins ago0xc11c5a23e5b13f3e53e2b63bfd25d17a6b424389 IN  0x2caa4694cb7daf7d49a198dc1103c06d4991ae520 BNB0.001656865
0x5e5207799f686dfd4d64b0aa148e811cd544f5709579ff6ac3bc0370312146da97248952021-08-03 22:32:041 hr 58 mins ago0x6465eefef3495195e78ac3be2f7ed282f6ea377a IN  0x2caa4694cb7daf7d49a198dc1103c06d4991ae520 BNB0.001191205
0x923885a618ac1646198507f80c3c639d3d704c2f1d7a780a65f8b2a474f442ff97248602021-08-03 22:30:191 hr 59 mins ago0x6465eefef3495195e78ac3be2f7ed282f6ea377a IN  0x2caa4694cb7daf7d49a198dc1103c06d4991ae520 BNB0.001558
0x24e7761a4e1bb97bd3c6e2bfa8cee34ace599199e56d1f252bfc0de76882ea8e97248442021-08-03 22:29:312 hrs ago0x6465eefef3495195e78ac3be2f7ed282f6ea377a IN  0x2caa4694cb7daf7d49a198dc1103c06d4991ae520 BNB0.00123969
0xe2547e974af20a5167b85c1ad8132f8fbe90585f5e4c66637dbb9393c33fe33c97247852021-08-03 22:26:342 hrs 3 mins ago0xf694bce85f5bac7fe06263983100e7d614a795ee IN  0x2caa4694cb7daf7d49a198dc1103c06d4991ae520 BNB0.001093345
0xe7568a3e003d97559dd086077c7b46c1de527234dd5b8b76c851af68a819484897247702021-08-03 22:25:492 hrs 4 mins ago0x6465eefef3495195e78ac3be2f7ed282f6ea377a IN  0x2caa4694cb7daf7d49a198dc1103c06d4991ae520 BNB0.001243785
0xbd43bf5d9b421282fc8dfb96f7aee1e405238cf73dc6727f27856202558ef26b97247392021-08-03 22:24:162 hrs 5 mins ago0x32783dea0ee4b5569d0ca4bb221ae50db502744d IN  0x2caa4694cb7daf7d49a198dc1103c06d4991ae520 BNB0.00123622
0xa832f1ba6fd6ddf23aa6909812c5b46a6cf23bf7b7f0f405b473bfd778a02fee97246802021-08-03 22:21:192 hrs 8 mins ago0xf694bce85f5bac7fe06263983100e7d614a795ee IN  0x2caa4694cb7daf7d49a198dc1103c06d4991ae520 BNB0.00128392
0xc4e694503ad7c38f6d8b3a83e4f2510bffdb34dc002893eb02a31b39690402d897246702021-08-03 22:20:492 hrs 9 mins ago0xf694bce85f5bac7fe06263983100e7d614a795ee IN  0x2caa4694cb7daf7d49a198dc1103c06d4991ae520 BNB0.000332515
0x836872998e45e896a7676a5976dbb03e5eaaa7e75efb4c0239e958f9363fcf9c97246682021-08-03 22:20:432 hrs 9 mins ago0xf694bce85f5bac7fe06263983100e7d614a795ee IN  0x2caa4694cb7daf7d49a198dc1103c06d4991ae520 BNB0.001612525
0x9e38fa1aff7f1657b1ae7957873e832884d21a0c33b2bdea2a601c849ee594fc97244192021-08-03 22:07:522 hrs 22 mins ago0xc7c308cbe6860767ec31c6d456d288df26b44667 IN  0x2caa4694cb7daf7d49a198dc1103c06d4991ae520 BNB0.001285535
0x82cadabdc5675f619a2b75b55e7ecca402f1da8563bda2feb13e00ea7e54553597244152021-08-03 22:07:392 hrs 22 mins ago0xc140625345a2409da6ba8380e42a79fa2a88f6e5 IN  0x2caa4694cb7daf7d49a198dc1103c06d4991ae520 BNB0.00128357
0xbc040c0171273dae0d42e72be229f234ba1e058e4e56c049af71e3ed60af8a3997244102021-08-03 22:07:212 hrs 22 mins ago0x46365a73d18ebf899d99b1b9f0c901f40fd33c49 IN  0x2caa4694cb7daf7d49a198dc1103c06d4991ae520 BNB0.00155075
0xa3288b31589f323136c3c2a33e5bfeeaf82e3ec5ce7d1fd4f4a3c233d7fe7e3397243762021-08-03 22:05:252 hrs 24 mins ago0x155dcf964577e7d2d3a058e4486945055f00b6fd IN  0x2caa4694cb7daf7d49a198dc1103c06d4991ae520 BNB0.00162394
0x3da6ff2f5bdfa79b476b07481052490b562dc19324508b9193a01a758183867097243762021-08-03 22:05:252 hrs 24 mins ago0xc7c308cbe6860767ec31c6d456d288df26b44667 IN  0x2caa4694cb7daf7d49a198dc1103c06d4991ae520 BNB0.001301245
0x2029259689eac70d4d8e65be6de56eaa95eb577944b7df075e6bdac859bf101597243162021-08-03 22:02:092 hrs 28 mins ago0xc7c308cbe6860767ec31c6d456d288df26b44667 IN  0x2caa4694cb7daf7d49a198dc1103c06d4991ae520 BNB0.001612875
0x5514bffea5089e3c450e5657561591745bf012519321ea8ab30d31885ce75e8a97242792021-08-03 21:59:522 hrs 30 mins ago0x41590ebe52b77ba072c19259b210a269e18c5f52 IN  0x2caa4694cb7daf7d49a198dc1103c06d4991ae520 BNB0.001177875
0xa3f2796ea0c780b9e6e992658a05f6a170997ce22ac17ce4c55a3a156dfd465497242692021-08-03 21:59:192 hrs 30 mins ago0x41590ebe52b77ba072c19259b210a269e18c5f52 IN  0x2caa4694cb7daf7d49a198dc1103c06d4991ae520 BNB0.001177875
0xc95033982ceb095b40dc910be15ae538c45cfbef4df3b9f4deabb4fbd40bd9b897242582021-08-03 21:58:422 hrs 31 mins ago0x41590ebe52b77ba072c19259b210a269e18c5f52 IN  0x2caa4694cb7daf7d49a198dc1103c06d4991ae520 BNB0.001177875
0x0ee4608a02ddb8efbfd0bff7ccf23548708f9a93d26ab8d78a3b1b986b1a8b8e97242492021-08-03 21:58:112 hrs 32 mins ago0x41590ebe52b77ba072c19259b210a269e18c5f52 IN  0x2caa4694cb7daf7d49a198dc1103c06d4991ae520 BNB0.001177875
0x0b7488ad865116cd451c863f31f1ae17f250ad9a197e8415b4654dd8ad71e55e97242402021-08-03 21:57:382 hrs 32 mins ago0x41590ebe52b77ba072c19259b210a269e18c5f52 IN  0x2caa4694cb7daf7d49a198dc1103c06d4991ae520 BNB0.001177875
0xa5059fc8f1c6a3b07615cfa6d00cdead43a1e442c740bcae221da0f95ff87a5b97242322021-08-03 21:57:102 hrs 33 mins ago0x41590ebe52b77ba072c19259b210a269e18c5f52 IN  0x2caa4694cb7daf7d49a198dc1103c06d4991ae520 BNB0.00150683
0x6689aeb6e38dabc17a3a1f4a840f67b01d601f2528223b6a1309994cdcf1231097241062021-08-03 21:50:522 hrs 39 mins ago0x0b56c55fee5fcc27dcaae1899daaba821cc4f537 IN  0x2caa4694cb7daf7d49a198dc1103c06d4991ae520 BNB0.00128392
[ Download CSV Export 
Latest 1 internal transaction
Parent Txn Hash Block From To Value
0x0564de699f30c679fa74c6546eab7396c18cb1ea5869117ad697710cf76a5fe192335442021-07-17 10:43:1917 days 13 hrs ago 0x2caa4694cb7daf7d49a198dc1103c06d4991ae52  Contract Creation0 BNB
[ Download CSV Export 
Loading
Are you the contract creator? Verify and Publish your contract source code today!

Decompile ByteCode
0x6080604052600436106100435760003560e01c80631c1b87721461005a5780638abf60771461008d578063ce606ee0146100be578063d99bb9f7146100d357610052565b36610052576100506100e8565b005b6100506100e8565b34801561006657600080fd5b506100506004803603602081101561007d57600080fd5b50356001600160a01b0316610102565b34801561009957600080fd5b506100a261013b565b604080516001600160a01b039092168252519081900360200190f35b3480156100ca57600080fd5b506100a261014a565b3480156100df57600080fd5b50610050610159565b6100f0610100565b6101006100fb610182565b610191565b565b6001546001600160a01b0316331461011957600080fd5b600080546001600160a01b0319166001600160a01b0392909216919091179055565b6000546001600160a01b031681565b6001546001600160a01b031681565b6001546001600160a01b0316331461017057600080fd5b600180546001600160a01b0319169055565b6000546001600160a01b031690565b3660008037600080366000845af43d6000803e8080156101b0573d6000f35b3d6000fdfea26469706673582212200c46e546620382a029ee8b91f6f2a5f24c0b64296d9fcfbb395b5b857858405764736f6c634300060c0033
Block Transaction Gas Used Reward
Age Block Fee Address BC Fee Address Voting Power Jailed Incoming
Block Uncle Number Difficulty Gas Used Reward
Loading
Loading
Make sure to use the "Vote Down" button for any spammy posts, and the "Vote Up" for interesting conversations.